Wellsville, NY

6:57 PM EST on December 17, 2017 (GMT -0500)
Wellsville Municipal-Tarantine

Weather History for KELZ - February, 2013

Change the Weather History Date:

Sunday, February 17, 2013

  Actual Average (KDSV) Record (KDSV)
Temperature  
Mean Temperature 12 °F -  
Max Temperature 16 °F 34 °F 62 °F (1981)
Min Temperature 8 °F 15 °F -14 °F (1973)
Degree Days  
Heating Degree Days 53    
Moisture  
Dew Point 5 °F    
Average Humidity 70    
Maximum Humidity 80    
Minimum Humidity 53    
Precipitation  
Precipitation 0.00 in - - ()
Sea Level Pressure  
Sea Level Pressure 29.90 in    
Wind  
Wind Speed 13 mph (NW)    
Max Wind Speed 26 mph    
Max Gust Speed 34 mph    
Visibility 6 miles    
Events Snow    
Averages and records for this station are not official NWS values.
T = Trace of Precipitation, MM = Missing Value Source: NWS Daily Summary

Daily Weather History Graph

Daily Weather History Graph

Search for Another Location

Airport or City:

Trip Planner

Search our weather history database for the weather conditions in past years. The results will help you decide how hot, cold, wet, or windy it might be!

Date:

Astronomy

Feb. 17, 2013 Rise Set
Actual Time 7:04 AM EST 5:47 PM EST
Civil Twilight 6:36 AM EST 6:16 PM EST
Nautical Twilight 6:03 AM EST 6:48 PM EST
Astronomical Twilight 5:31 AM EST 7:21 PM EST
Moon 10:48 AM EST 12:49 AM EST
Length of Visible Light 11h 39m
Length of Day
10h 42m
Waxing Crescent, 49% of the Moon is Illuminated
Feb 17
Waxing Crescent
Feb 17
First Quarter
Feb 25
Full
Mar 4
Last Quarter
Mar 11
New

Hourly Weather History & Observations

Time (EST) Temp. Windchill Dew Point Humidity Pressure Visibility Wind Dir Wind Speed Gust Speed Precip Events Conditions
12:56 AM 12.9 °F 2.6 °F 3.9 °F 67% 29.89 in 10.0 mi NW 6.9 mph - N/A   Clear
1:56 AM 12.0 °F 0.5 °F 5.0 °F 73% 29.88 in 10.0 mi WNW 8.1 mph - N/A   Partly Cloudy
2:56 AM 12.0 °F 0.5 °F 5.0 °F 73% 29.87 in 10.0 mi West 8.1 mph - N/A   Partly Cloudy
3:12 AM 14.0 °F 2.9 °F 6.8 °F 73% 29.77 in 10.0 mi West 8.1 mph - N/A   Mostly Cloudy
3:56 AM 15.1 °F 3.3 °F 8.1 °F 74% 29.86 in 9.0 mi West 9.2 mph - 0.00 in Snow Light Snow
4:56 AM 15.1 °F 1.8 °F 10.0 °F 80% 29.87 in 6.0 mi NW 11.5 mph - 0.00 in Snow Light Snow
5:16 AM 15.8 °F 4.2 °F 10.4 °F 79% 29.77 in 3.0 mi NW 9.2 mph - 0.00 in Snow Light Snow
5:32 AM 15.8 °F 5.1 °F 8.6 °F 73% 29.77 in 7.0 mi NNW 8.1 mph - 0.00 in Snow Light Snow
5:56 AM 14.0 °F 2.9 °F 9.0 °F 80% 29.88 in 9.0 mi NW 8.1 mph - 0.00 in Snow Light Snow
6:18 AM 14.0 °F 1.2 °F 8.6 °F 79% 29.78 in 1.8 mi NW 10.4 mph - 0.00 in Snow Light Snow
6:41 AM 14.0 °F 1.2 °F 8.6 °F 79% 29.78 in 2.0 mi NNW 10.4 mph - 0.00 in Snow Light Snow
6:56 AM 15.1 °F 1.1 °F 9.0 °F 77% 29.88 in 2.5 mi NNW 12.7 mph 20.7 mph 0.00 in Snow Light Snow
7:30 AM 14.0 °F -2.0 °F 8.6 °F 79% 29.79 in 4.0 mi NNW 16.1 mph 23.0 mph 0.00 in Snow Light Snow
7:40 AM 14.0 °F -0.2 °F 8.6 °F 79% 29.80 in 1.8 mi NNW 12.7 mph - 0.00 in Snow Light Snow
7:56 AM 14.0 °F 2.0 °F 9.0 °F 80% 29.91 in 1.0 mi NNW 9.2 mph - 0.00 in Snow Light Snow
8:07 AM 14.0 °F 2.0 °F 8.6 °F 79% 29.80 in 2.0 mi NNW 9.2 mph - 0.00 in Snow Light Snow
8:17 AM 14.0 °F 2.0 °F 8.6 °F 79% 29.80 in 1.8 mi NNW 9.2 mph - 0.00 in Snow Light Snow
8:23 AM 15.8 °F 3.4 °F 8.6 °F 73% 29.80 in 3.0 mi NNW 10.4 mph - 0.00 in Snow Light Snow
8:37 AM 15.8 °F 2.7 °F 8.6 °F 73% 29.81 in 1.8 mi North 11.5 mph 18.4 mph 0.00 in Snow Light Snow
8:52 AM 14.0 °F -0.8 °F 8.6 °F 79% 29.81 in 3.0 mi NNW 13.8 mph 19.6 mph 0.00 in Snow Light Snow
8:56 AM 14.0 °F 1.2 °F 8.1 °F 77% 29.92 in 6.0 mi NNW 10.4 mph 19.6 mph 0.00 in Snow Light Snow
9:04 AM 14.0 °F 1.2 °F 8.6 °F 79% 29.81 in 8.0 mi North 10.4 mph 19.6 mph 0.00 in   Overcast
9:56 AM 15.1 °F 3.3 °F 7.0 °F 70% 29.93 in 4.0 mi North 9.2 mph - 0.00 in Snow Light Snow
10:08 AM 15.8 °F 5.1 °F 6.8 °F 68% 29.82 in 1.8 mi North 8.1 mph - 0.00 in Snow Light Snow
10:15 AM 14.0 °F 2.0 °F 8.6 °F 79% 29.83 in 0.5 mi NW 9.2 mph - 0.00 in Snow Snow
10:22 AM 15.8 °F 3.4 °F 8.6 °F 73% 29.83 in 0.2 mi NW 10.4 mph - 0.00 in Snow Heavy Snow
10:31 AM 15.8 °F 0.3 °F 8.6 °F 73% 29.83 in 0.8 mi NW 16.1 mph 21.9 mph 0.00 in Snow Light Snow
10:35 AM 15.8 °F -1.5 °F 6.8 °F 68% 29.83 in 2.5 mi WNW 20.7 mph 26.5 mph 0.00 in Snow Light Snow
10:42 AM 15.8 °F 0.9 °F 5.0 °F 62% 29.83 in 5.0 mi NW 15.0 mph 29.9 mph 0.00 in Snow Light Snow
10:49 AM 15.8 °F -1.5 °F 5.0 °F 62% 29.83 in 8.0 mi WNW 20.7 mph 27.6 mph 0.00 in Snow Light Snow
10:56 AM 16.0 °F 0.1 °F 3.0 °F 57% 29.94 in 8.0 mi NNW 17.3 mph 28.8 mph 0.00 in   Mostly Cloudy
11:36 AM 15.8 °F -3.4 °F 3.2 °F 58% 29.84 in 6.0 mi NW 26.5 mph 33.4 mph 0.00 in   Mostly Cloudy
11:44 AM 15.8 °F -1.5 °F 1.4 °F 53% 29.84 in 6.0 mi WNW 20.7 mph 33.4 mph 0.00 in   Mostly Cloudy
11:56 AM 15.1 °F -3.3 °F 3.0 °F 59% 29.96 in 9.0 mi WNW 23.0 mph 32.2 mph 0.00 in   Mostly Cloudy
12:56 PM 14.0 °F -5.1 °F -0.0 °F 54% 29.96 in 10.0 mi NW 24.2 mph 32.2 mph 0.00 in   Mostly Cloudy
1:56 PM 12.9 °F -6.1 °F 1.0 °F 59% 29.97 in 10.0 mi WNW 23.0 mph 32.2 mph N/A   Overcast
2:36 PM 10.4 °F -7.7 °F -0.4 °F 62% 29.86 in 9.0 mi NW 18.4 mph 29.9 mph 0.00 in   Overcast
2:51 PM 10.4 °F -8.6 °F -2.2 °F 57% 29.87 in 10.0 mi NW 20.7 mph 32.2 mph 0.00 in   Scattered Clouds
2:56 PM 12.0 °F -8.1 °F -0.9 °F 56% 30.00 in 10.0 mi NW 25.3 mph 32.2 mph 0.00 in   Scattered Clouds
3:30 PM 10.4 °F -7.7 °F 1.4 °F 67% 29.88 in 4.0 mi WNW 18.4 mph 26.5 mph 0.00 in Snow Light Snow
3:56 PM 10.9 °F -8.3 °F -0.9 °F 59% 30.01 in 10.0 mi NW 21.9 mph 29.9 mph 0.00 in   Mostly Cloudy
4:07 PM 10.4 °F -10.3 °F -0.4 °F 62% 29.88 in 10.0 mi WNW 25.3 mph 34.5 mph N/A   Mostly Cloudy
4:34 PM 10.4 °F -8.2 °F -0.4 °F 62% 29.89 in 10.0 mi NW 19.6 mph 27.6 mph 0.00 in   Mostly Cloudy
4:56 PM 10.9 °F -4.7 °F -0.0 °F 61% 30.01 in 10.0 mi WNW 13.8 mph 24.2 mph 0.00 in   Overcast
5:33 PM 10.4 °F -7.2 °F 1.4 °F 67% 29.90 in 1.8 mi WNW 17.3 mph 25.3 mph 0.00 in Snow Light Snow
5:41 PM 10.4 °F -9.1 °F 1.4 °F 67% 29.90 in 2.0 mi NW 21.9 mph 27.6 mph 0.00 in Snow Light Snow
5:56 PM 10.0 °F -9.1 °F 1.0 °F 67% 30.04 in 5.0 mi NW 20.7 mph 31.1 mph 0.00 in Snow Light Snow
6:10 PM 10.4 °F -7.7 °F 1.4 °F 67% 29.92 in 7.0 mi NW 18.4 mph 24.2 mph 0.00 in   Overcast
6:56 PM 10.0 °F -6.5 °F 1.0 °F 67% 30.07 in 8.0 mi NW 15.0 mph 25.3 mph 0.00 in   Overcast
7:56 PM 10.0 °F -5.9 °F 1.9 °F 70% 30.09 in 3.0 mi NW 13.8 mph 26.5 mph 0.00 in Snow Light Snow
8:33 PM 10.4 °F -5.4 °F 3.2 °F 73% 29.99 in 2.0 mi NW 13.8 mph 24.2 mph 0.00 in Snow Light Snow
8:46 PM 8.6 °F -8.3 °F 1.4 °F 73% 29.99 in 6.0 mi NW 15.0 mph 26.5 mph 0.00 in Snow Light Snow
8:56 PM 10.0 °F -7.1 °F 1.0 °F 67% 30.12 in 10.0 mi NW 16.1 mph 27.6 mph 0.00 in   Overcast
9:56 PM 9.0 °F -7.9 °F 1.0 °F 70% 30.14 in 10.0 mi NW 15.0 mph 25.3 mph N/A   Overcast
10:56 PM 9.0 °F -10.0 °F 1.9 °F 73% 30.16 in 5.0 mi WNW 19.6 mph 24.2 mph 0.00 in   Haze
11:56 PM 9.0 °F -12.6 °F 1.0 °F 70% 30.18 in 8.0 mi NW 26.5 mph 33.4 mph 0.00 in   Overcast